TimeEDT,TemperatureF,Dew PointF,Humidity,Sea Level PressureIn,VisibilityMPH,Wind Direction,Wind SpeedMPH,Gust SpeedMPH,PrecipitationIn,Events,Conditions,WindDirDegrees,DateUTC
12:06 AM,51.8,41.0,67,30.10,10.0,West,5.8,-,N/A,,Clear,280,2012-10-11 04:06:00
12:27 AM,51.8,41.0,67,30.10,10.0,WSW,5.8,-,N/A,,Clear,250,2012-10-11 04:27:00
12:48 AM,50.0,41.0,71,30.10,10.0,West,6.9,-,N/A,,Clear,280,2012-10-11 04:48:00
1:09 AM,48.2,41.0,76,30.11,10.0,West,4.6,-,N/A,,Clear,260,2012-10-11 05:09:00
1:30 AM,46.4,41.0,81,30.12,10.0,WSW,4.6,-,N/A,,Clear,250,2012-10-11 05:30:00
1:54 AM,48.2,41.0,76,30.12,10.0,West,6.9,-,N/A,,Clear,260,2012-10-11 05:54:00
2:36 AM,51.8,41.0,67,30.14,10.0,Calm,Calm,-,N/A,,Clear,0,2012-10-11 06:36:00
2:57 AM,50.0,41.0,71,30.14,10.0,West,8.1,-,N/A,,Clear,260,2012-10-11 06:57:00
3:18 AM,50.0,39.2,66,30.14,10.0,West,11.5,-,N/A,,Clear,280,2012-10-11 07:18:00
3:39 AM,48.2,37.4,66,30.15,10.0,West,8.1,-,N/A,,Clear,280,2012-10-11 07:39:00
4:00 AM,48.2,37.4,66,30.15,10.0,West,8.1,-,N/A,,Clear,270,2012-10-11 08:00:00
4:21 AM,48.2,37.4,66,30.17,10.0,WNW,6.9,-,N/A,,Clear,300,2012-10-11 08:21:00
4:42 AM,44.6,37.4,76,30.17,10.0,West,4.6,-,N/A,,Clear,280,2012-10-11 08:42:00
5:06 AM,46.4,39.2,76,30.18,10.0,WSW,5.8,-,N/A,,Clear,250,2012-10-11 09:06:00
5:27 AM,48.2,37.4,66,30.19,10.0,West,6.9,-,N/A,,Clear,260,2012-10-11 09:27:00
5:33 AM,48.2,35.6,62,30.20,10.0,WSW,4.6,-,N/A,,Clear,250,2012-10-11 09:33:00
5:45 AM,48.2,37.4,66,30.22,10.0,WSW,6.9,-,N/A,,Clear,250,2012-10-11 09:45:00
7:45 AM,46.4,35.6,66,30.28,10.0,WSW,4.6,-,N/A,,Clear,250,2012-10-11 11:45:00
8:55 AM,50.0,35.6,58,30.29,10.0,WNW,8.1,-,N/A,,Clear,290,2012-10-11 12:55:00
9:45 AM,51.8,35.6,54,30.30,10.0,WNW,10.4,-,N/A,,Clear,290,2012-10-11 13:45:00
10:55 AM,55.4,32.0,41,30.29,10.0,NW,9.2,-,N/A,,Clear,310,2012-10-11 14:55:00
11:50 AM,55.4,32.0,41,30.29,10.0,North,3.5,-,N/A,,Clear,360,2012-10-11 15:50:00
12:45 PM,57.2,32.0,38,30.27,10.0,SW,6.9,-,N/A,,Clear,230,2012-10-11 16:45:00
1:45 PM,59.0,32.0,36,30.25,10.0,WSW,6.9,-,N/A,,Clear,250,2012-10-11 17:45:00
2:45 PM,60.8,32.0,34,30.23,10.0,Calm,Calm,-,N/A,,Clear,0,2012-10-11 18:45:00
3:45 PM,60.8,33.8,36,30.22,10.0,South,5.8,-,N/A,,Clear,170,2012-10-11 19:45:00
4:45 PM,62.6,33.8,34,30.21,10.0,South,4.6,-,N/A,,Clear,190,2012-10-11 20:45:00
6:45 PM,57.2,41.0,55,30.21,10.0,SSE,5.8,-,N/A,,Clear,160,2012-10-11 22:45:00
7:45 PM,55.4,44.6,67,30.20,10.0,South,8.1,-,N/A,,Clear,170,2012-10-11 23:45:00
8:45 PM,53.6,44.6,72,30.21,10.0,South,3.5,-,N/A,,Clear,180,2012-10-12 00:45:00
9:54 PM,50.0,44.6,82,30.22,10.0,Calm,Calm,-,N/A,,Clear,0,2012-10-12 01:54:00
10:27 PM,50.0,42.8,76,30.22,10.0,Calm,Calm,-,N/A,,Clear,0,2012-10-12 02:27:00
10:48 PM,48.2,42.8,82,30.22,10.0,Calm,Calm,-,N/A,,Clear,0,2012-10-12 02:48:00
11:09 PM,46.4,44.6,93,30.21,10.0,Calm,Calm,-,N/A,,Clear,0,2012-10-12 03:09:00
11:30 PM,46.4,44.6,93,30.20,10.0,Calm,Calm,-,N/A,,Clear,0,2012-10-12 03:30:00
11:51 PM,46.4,44.6,93,30.20,10.0,Calm,Calm,-,N/A,,Clear,0,2012-10-12 03:51:00